TimeCST,TemperatureF,Dew PointF,Humidity,Sea Level PressureIn,VisibilityMPH,Wind Direction,Wind SpeedMPH,Gust SpeedMPH,PrecipitationIn,Events,Conditions,WindDirDegrees,DateUTC
12:15 AM,51.8,48.2,88,30.22,10.0,North,3.5,-,N/A,,Scattered Clouds,360,2012-11-15 06:15:00
12:35 AM,51.8,48.2,88,30.22,10.0,Calm,Calm,-,N/A,,Mostly Cloudy,0,2012-11-15 06:35:00
12:55 AM,51.8,48.2,88,30.22,10.0,North,3.5,-,N/A,,Scattered Clouds,350,2012-11-15 06:55:00
1:15 AM,51.8,48.2,88,30.22,10.0,North,4.6,-,N/A,,Scattered Clouds,350,2012-11-15 07:15:00
1:35 AM,51.8,46.4,82,30.21,10.0,NNW,3.5,-,N/A,,Scattered Clouds,340,2012-11-15 07:35:00
1:55 AM,50.0,46.4,87,30.21,10.0,NNW,3.5,-,N/A,,Clear,340,2012-11-15 07:55:00
2:15 AM,50.0,46.4,87,30.20,10.0,North,4.6,-,N/A,,Clear,350,2012-11-15 08:15:00
2:35 AM,50.0,46.4,87,30.20,10.0,North,3.5,-,N/A,,Clear,350,2012-11-15 08:35:00
2:55 AM,50.0,46.4,87,30.20,7.0,NNW,3.5,-,N/A,,Clear,340,2012-11-15 08:55:00
3:15 AM,48.2,44.6,87,30.20,7.0,Calm,Calm,-,N/A,,Clear,0,2012-11-15 09:15:00
3:35 AM,48.2,44.6,87,30.20,7.0,Calm,Calm,-,N/A,,Scattered Clouds,0,2012-11-15 09:35:00
3:55 AM,50.0,46.4,87,30.20,7.0,Calm,Calm,-,N/A,,Overcast,0,2012-11-15 09:55:00
4:15 AM,48.2,46.4,93,30.21,5.0,Calm,Calm,-,N/A,,Scattered Clouds,0,2012-11-15 10:15:00
4:35 AM,48.2,44.6,87,30.21,5.0,Calm,Calm,-,N/A,,Clear,0,2012-11-15 10:35:00
4:55 AM,46.4,44.6,93,30.22,3.0,Calm,Calm,-,N/A,,Scattered Clouds,0,2012-11-15 10:55:00
5:15 AM,46.4,44.6,93,30.22,4.0,North,3.5,-,N/A,,Scattered Clouds,360,2012-11-15 11:15:00
5:35 AM,46.4,44.6,93,30.22,4.0,Calm,Calm,-,N/A,,Clear,0,2012-11-15 11:35:00
5:55 AM,44.6,41.0,87,30.23,0.2,Calm,Calm,-,N/A,Fog,Fog,0,2012-11-15 11:55:00
6:15 AM,44.6,42.8,93,30.23,1.0,Calm,Calm,-,N/A,,Mostly Cloudy,0,2012-11-15 12:15:00
6:35 AM,46.4,44.6,93,30.23,1.8,Calm,Calm,-,N/A,,Overcast,0,2012-11-15 12:35:00
6:55 AM,48.2,46.4,93,30.23,4.0,North,4.6,-,N/A,,Mostly Cloudy,350,2012-11-15 12:55:00
7:15 AM,50.0,46.4,87,30.24,7.0,North,3.5,-,N/A,,Mostly Cloudy,360,2012-11-15 13:15:00
7:35 AM,50.0,48.2,94,30.25,7.0,North,3.5,-,N/A,,Scattered Clouds,350,2012-11-15 13:35:00
7:55 AM,51.8,50.0,94,30.25,10.0,North,3.5,-,N/A,,Scattered Clouds,350,2012-11-15 13:55:00
8:15 AM,53.6,48.2,82,30.26,10.0,North,4.6,-,N/A,,Scattered Clouds,10,2012-11-15 14:15:00
8:35 AM,53.6,48.2,82,30.26,10.0,North,6.9,-,N/A,,Mostly Cloudy,10,2012-11-15 14:35:00
8:55 AM,55.4,48.2,77,30.26,10.0,NE,9.2,-,N/A,,Mostly Cloudy,40,2012-11-15 14:55:00
9:15 AM,57.2,46.4,67,30.27,10.0,NE,6.9,-,N/A,,Mostly Cloudy,50,2012-11-15 15:15:00
9:35 AM,55.4,44.6,67,30.26,10.0,NNE,8.1,-,N/A,,Mostly Cloudy,20,2012-11-15 15:35:00
9:55 AM,59.0,44.6,59,30.25,10.0,NE,9.2,-,N/A,,Scattered Clouds,50,2012-11-15 15:55:00
10:15 AM,57.2,44.6,63,30.26,10.0,North,8.1,-,N/A,,Scattered Clouds,360,2012-11-15 16:15:00
10:35 AM,57.2,44.6,63,30.25,10.0,North,8.1,-,N/A,,Mostly Cloudy,10,2012-11-15 16:35:00
10:55 AM,59.0,44.6,59,30.25,10.0,NNE,6.9,-,N/A,,Scattered Clouds,20,2012-11-15 16:55:00
11:15 AM,59.0,42.8,55,30.24,10.0,North,8.1,-,N/A,,Clear,350,2012-11-15 17:15:00
11:35 AM,59.0,44.6,59,30.24,10.0,NNE,5.8,-,N/A,,Clear,20,2012-11-15 17:35:00
11:55 AM,60.8,44.6,55,30.23,10.0,ENE,9.2,-,N/A,,Clear,60,2012-11-15 17:55:00
12:15 PM,60.8,44.6,55,30.23,10.0,North,-9999.0,-,N/A,,Clear,0,2012-11-15 18:15:00
12:35 PM,60.8,44.6,55,30.21,10.0,NNE,8.1,-,N/A,,Clear,30,2012-11-15 18:35:00
12:55 PM,60.8,44.6,55,30.20,10.0,Calm,Calm,-,N/A,,Clear,0,2012-11-15 18:55:00
1:15 PM,62.6,44.6,52,30.20,10.0,North,3.5,-,N/A,,Clear,360,2012-11-15 19:15:00
1:35 PM,62.6,44.6,52,30.20,10.0,ENE,4.6,-,N/A,,Clear,70,2012-11-15 19:35:00
1:55 PM,62.6,44.6,52,30.20,10.0,North,3.5,-,N/A,,Clear,10,2012-11-15 19:55:00
2:15 PM,62.6,42.8,48,30.19,10.0,NE,8.1,-,N/A,,Clear,40,2012-11-15 20:15:00
2:35 PM,64.4,42.8,45,30.18,10.0,NE,6.9,-,N/A,,Clear,50,2012-11-15 20:35:00
2:55 PM,64.4,42.8,45,30.18,10.0,NNE,6.9,-,N/A,,Clear,30,2012-11-15 20:55:00
3:15 PM,62.6,42.8,48,30.18,10.0,NE,5.8,-,N/A,,Clear,50,2012-11-15 21:15:00
3:35 PM,62.6,42.8,48,30.18,10.0,NNE,5.8,-,N/A,,Clear,30,2012-11-15 21:35:00
3:55 PM,62.6,42.8,48,30.18,10.0,NE,3.5,-,N/A,,Clear,50,2012-11-15 21:55:00
4:15 PM,62.6,42.8,48,30.19,10.0,NNE,4.6,-,N/A,,Clear,30,2012-11-15 22:15:00
4:35 PM,60.8,44.6,55,30.19,10.0,Calm,Calm,-,N/A,,Clear,0,2012-11-15 22:35:00
4:55 PM,59.0,44.6,59,30.20,10.0,Calm,Calm,-,N/A,,Clear,0,2012-11-15 22:55:00
5:15 PM,57.2,46.4,67,30.21,10.0,Calm,Calm,-,N/A,,Clear,0,2012-11-15 23:15:00
5:35 PM,55.4,44.6,67,30.21,10.0,NNE,3.5,-,N/A,,Clear,30,2012-11-15 23:35:00
5:55 PM,53.6,44.6,72,30.21,10.0,Calm,Calm,-,N/A,,Clear,0,2012-11-15 23:55:00
6:15 PM,53.6,44.6,72,30.23,10.0,NE,5.8,-,N/A,,Clear,40,2012-11-16 00:15:00
6:35 PM,53.6,44.6,72,30.23,10.0,NE,5.8,-,N/A,,Clear,50,2012-11-16 00:35:00
6:55 PM,51.8,44.6,76,30.23,10.0,NE,4.6,-,N/A,,Clear,40,2012-11-16 00:55:00
7:15 PM,51.8,44.6,76,30.23,10.0,NE,5.8,-,N/A,,Clear,40,2012-11-16 01:15:00
7:35 PM,50.0,44.6,82,30.24,10.0,NE,4.6,-,N/A,,Clear,40,2012-11-16 01:35:00
7:55 PM,50.0,42.8,76,30.25,10.0,NNE,4.6,-,N/A,,Clear,20,2012-11-16 01:55:00
8:15 PM,50.0,42.8,76,30.25,10.0,NNE,4.6,-,N/A,,Clear,30,2012-11-16 02:15:00
8:35 PM,48.2,42.8,82,30.25,10.0,NNE,3.5,-,N/A,,Clear,20,2012-11-16 02:35:00
8:55 PM,46.4,42.8,87,30.25,10.0,NNE,3.5,-,N/A,,Clear,30,2012-11-16 02:55:00
9:15 PM,46.4,42.8,87,30.25,10.0,NNE,3.5,-,N/A,,Clear,20,2012-11-16 03:15:00
9:35 PM,46.4,42.8,87,30.25,10.0,North,3.5,-,N/A,,Clear,10,2012-11-16 03:35:00
9:55 PM,46.4,42.8,87,30.27,10.0,North,3.5,-,N/A,,Clear,10,2012-11-16 03:55:00
10:15 PM,46.4,42.8,87,30.27,10.0,North,3.5,-,N/A,,Clear,360,2012-11-16 04:15:00
10:35 PM,46.4,42.8,87,30.26,10.0,North,3.5,-,N/A,,Clear,360,2012-11-16 04:35:00
10:55 PM,46.4,42.8,87,30.27,10.0,North,3.5,-,N/A,,Clear,360,2012-11-16 04:55:00
11:15 PM,44.6,42.8,93,30.26,10.0,North,4.6,-,N/A,,Clear,360,2012-11-16 05:15:00
11:35 PM,44.6,42.8,93,30.25,10.0,NNE,4.6,-,N/A,,Clear,20,2012-11-16 05:35:00
11:55 PM,46.4,42.8,87,30.26,10.0,North,3.5,-,N/A,,Clear,10,2012-11-16 05:55:00